Lid_Strength_Index
7 12 13 11 11 11 12 13 13 12 10 11 12 12 11 10 10 10 9 8 7 6 4 3 3 2 2 2 2 2 2 2 2 2 2 2 2 1 1 1 1 1 1 1
11 13 10 9 10 11 12 14 14 11 11 11 13 13 11 11 11 10 10 9 9 7 7 5 3 3 2 2 2 2 2 2 2 2 2 2 2 1 1 0 1 0 1 1
13 12 8 10 11 12 13 14 13 13 12 12 13 14 13 11 11 10 10 9 9 9 8 8 8 5 3 3 2 2 2 2 2 1 2 3 2 3 2 2 1 1 1 1
11 10 11 12 12 11 15 10 11 12 13 16 13 18 14 13 13 12 11 10 9 8 8 9 9 7 4 3 3 3 2 2 1 1 1 2 2 3 2 2 1 1 1 1
12 12 11 13 12 10 13 10 11 12 14 15 15 17 15 14 14 13 12 12 11 10 9 11 11 11 11 10 8 6 3 3 2 1 1 1 2 1 2 2 2 2 2 1
11 10 11 11 10 9 10 12 13 13 13 19 15 16 16 14 13 13 13 14 13 13 12 11 10 10 10 9 9 9 9 8 4 2 2 2 2 2 2 2 3 2 2 2
12 13 12 11 12 11 12 13 18 20 20 20 17 16 15 12 12 13 14 13 13 12 12 11 10 9 8 7 7 6 8 7 8 7 3 2 1 1 2 2 2 2 2 2
16 18 13 11 12 12 13 13 18 22 22 19 16 17 14 14 13 13 13 12 11 11 10 10 10 10 9 8 7 5 4 5 5 7 8 8 5 4 3 2 1 2 1 2
16 16 13 12 12 11 13 15 13 18 24 20 18 17 14 14 14 14 13 11 11 11 10 10 10 10 10 10 9 6 5 5 4 4 4 4 4 5 6 5 4 3 1 1
13 16 13 12 11 11 12 12 16 18 25 25 20 19 18 15 15 14 13 12 12 11 11 11 10 10 10 10 10 9 9 9 7 6 6 5 6 6 5 5 4 4 3 3
12 14 15 12 14 15 14 15 15 15 17 21 22 19 15 15 14 14 13 12 12 12 12 11 11 11 10 10 10 10 10 9 9 9 9 9 8 8 7 7 7 6 6 5
10 13 17 16 14 12 13 15 15 17 19 19 18 18 14 14 14 13 13 11 12 12 11 11 11 11 10 10 9 10 9 9 9 9 9 9 9 9 9 9 9 8 7 7
10 13 18 16 16 14 14 13 14 15 15 17 19 18 14 14 14 13 12 12 11 12 11 11 11 10 10 9 9 9 9 9 9 9 9 9 9 9 9 9 8 8 8 8
8 12 15 19 16 15 15 14 14 14 18 18 17 18 16 15 14 13 12 12 11 11 11 10 10 9 9 9 9 9 8 8 8 8 8 9 9 8 8 8 8 7 7 7
10 14 13 13 13 13 14 14 14 15 15 17 16 16 14 14 14 13 12 12 12 11 10 10 9 9 9 9 8 8 8 8 8 8 8 8 8 8 8 8 8 8 8 8
11 14 13 15 12 12 14 13 14 14 14 16 15 16 14 13 12 12 11 11 11 10 10 9 9 9 9 9 8 8 7 7 7 8 8 8 8 8 9 8 8 8 8 8
12 15 15 17 13 14 18 15 13 13 13 13 15 13 12 13 11 11 11 10 10 9 9 10 9 9 9 8 8 7 7 8 8 8 9 9 9 9 10 10 9 9 9 9
12 14 17 20 15 21 15 15 13 13 13 13 12 11 11 11 10 10 10 9 9 10 10 9 9 9 8 8 8 8 8 9 9 9 10 10 11 11 11 10 10 10 10 9
10 12 17 18 18 15 14 15 14 13 14 12 12 11 10 10 10 11 9 9 9 10 9 9 9 8 8 9 9 9 10 10 10 10 11 11 11 11 11 11 11 11 10 10
10 11 14 19 18 21 15 13 13 13 17 14 11 11 11 11 13 12 11 9 9 9 9 9 8 9 9 10 10 10 10 10 10 11 11 11 11 11 11 11 11 11 10 10
14 14 16 18 19 17 13 13 12 18 16 12 12 12 12 12 12 11 10 10 11 10 10 10 10 10 10 11 11 10 10 10 10 11 12 12 12 11 11 11 11 11 11 10
14 15 17 17 18 20 12 13 15 13 12 12 12 12 12 12 12 12 12 12 12 12 12 10 10 10 10 10 10 10 10 10 11 12 13 13 13 12 12 13 12 12 11 12
15 12 14 13 14 11 11 12 11 11 11 12 12 12 11 11 12 12 12 12 11 11 11 10 10 10 10 10 10 11 10 12 14 16 16 15 14 13 13 13 12 12 12 12
12 11 13 12 11 10 10 10 11 11 11 11 11 12 12 12 12 11 11 11 11 11 11 12 14 13 12 14 14 14 15 16 19 18 17 16 15 14 14 13 12 12 12 12
12 11 13 14 11 11 10 10 10 10 10 11 11 11 11 11 11 11 11 11 11 11 11 12 12 12 12 15 17 19 18 19 17 18 17 16 15 16 15 14 13 12 12 11
13 13 13 14 10 11 10 10 9 10 10 10 11 11 11 11 10 11 11 11 12 11 13 13 13 15 14 17 18 20 21 19 19 17 17 17 16 17 16 16 14 10 9 8